Le nostre stazioni meteo in Italia

Pubblicità
Il mio iltempo24.it
Messina, Italia (16420): Temperatura & dewpoint: 16.11.2019 08:00:00 - 22.11.2019 08:00:00 (CET)Messina, Italia (16420): velocità del vento: 16.11.2019 08:00:00 - 22.11.2019 08:00:00 (CET)Messina, Italia (16420): direzione del vento: 16.11.2019 08:00:00 - 22.11.2019 08:00:00 (CET)Messina, Italia (16420): reduced air pressure: 16.11.2019 08:00:00 - 22.11.2019 08:00:00 (CET)Messina, Italia (16420): visibility: 16.11.2019 08:00:00 - 22.11.2019 08:00:00 (CET)Messina, Italia (16420): ore di luce: 16.11.2019 08:00:00 - 22.11.2019 08:00:00 (CET)
Data & Tempo tt [°C] td [°C] ff [km/h] ff [kn] dd ppp [hPa] vv [km] sd [min]
22.11.2019 08:00:00 - - - - - - - -
22.11.2019 07:00:00 11,0 9,4 0 0 N 1014,6 20 0
22.11.2019 06:00:00 11,0 9,9 4 2 O 1014,5 16 -
22.11.2019 05:00:00 11,0 9,4 0 0 N 1014,5 16 -
22.11.2019 04:00:00 11,0 8,7 2 1 ONO 1014,5 16 -
22.11.2019 03:00:00 11,4 9,8 0 0 N 1014,5 16 -
22.11.2019 02:00:00 11,8 9,2 5 3 OSO 1014,5 16 -
22.11.2019 01:00:00 11,8 9,4 0 0 N 1014,5 16 -
22.11.2019 00:00:00 11,8 8,5 0 0 N 1014,6 16 -
21.11.2019 23:00:00 12,0 7,7 0 0 N 1014,4 16 -
21.11.2019 22:00:00 12,0 8,3 0 0 N 1014,3 16 -
21.11.2019 21:00:00 12,2 8,9 0 0 N 1014,0 16 -
21.11.2019 20:00:00 12,8 9,8 0 0 N 1013,9 16 -
21.11.2019 19:00:00 13,2 9,1 0 0 N 1013,6 16 -
21.11.2019 18:00:00 14,0 9,4 2 1 NO 1013,6 16 -
21.11.2019 17:00:00 15,2 9,1 0 0 N 1013,6 20 6
21.11.2019 16:00:00 18,0 6,5 0 0 N 1013,5 20 54
21.11.2019 15:00:00 18,0 5,2 2 1 SSO 1013,6 20 60
21.11.2019 14:00:00 18,0 3,5 4 2 SSO 1013,9 20 60
21.11.2019 13:00:00 17,2 3,5 5 3 SSO 1014,3 20 42
21.11.2019 12:00:00 17,0 7,1 5 3 SSO 1014,8 20 60
21.11.2019 11:00:00 16,4 9,4 4 2 SSO 1015,4 20 60
21.11.2019 10:00:00 15,6 9,1 4 2 SSO 1015,4 20 60
21.11.2019 09:00:00 13,0 9,1 4 2 OSO 1015,4 20 60
21.11.2019 08:00:00 11,0 8,9 0 0 N 1015,4 20 18
21.11.2019 07:00:00 10,8 9,2 0 0 N 1015,1 20 0
21.11.2019 06:00:00 11,0 9,6 2 1 OSO 1015,3 20 -
21.11.2019 05:00:00 11,2 9,6 0 0 N 1015,3 18 -
21.11.2019 04:00:00 16,2 13,7 4 2 O 1015,5 18 -
21.11.2019 03:00:00 16,4 14,8 2 1 O 1015,7 18 -
21.11.2019 02:00:00 16,8 15,2 0 0 N 1015,7 15 -
21.11.2019 01:00:00 17,0 14,3 2 1 O 1015,7 18 -
21.11.2019 00:00:00 13,8 10,6 2 1 O 1015,8 18 -
20.11.2019 23:00:00 13,6 9,1 0 0 N 1015,8 18 -
20.11.2019 22:00:00 14,4 8,6 2 1 NO 1015,8 18 -
20.11.2019 21:00:00 14,6 8,1 4 2 ONO 1015,6 14 -
20.11.2019 20:00:00 15,0 8,7 5 3 NO 1015,4 14 -
20.11.2019 19:00:00 15,2 8,9 9 5 NO 1015,3 14 -
20.11.2019 18:00:00 15,2 9,4 9 5 ONO 1015,4 14 -
20.11.2019 17:00:00 16,0 9,7 9 5 NO 1015,4 20 0
20.11.2019 16:00:00 16,4 8,1 9 5 NO 1015,3 20 48
20.11.2019 15:00:00 17,2 7,3 13 7 NO 1014,4 20 60
20.11.2019 14:00:00 17,6 7,1 11 6 ONO 1014,6 20 60
20.11.2019 13:00:00 17,8 6,0 8 4 O 1015,2 20 60
20.11.2019 12:00:00 18,4 4,6 4 2 O 1015,3 20 60
20.11.2019 11:00:00 17,8 4,7 4 2 O 1015,1 20 60
20.11.2019 10:00:00 16,6 6,7 0 0 N 1015,0 20 60
20.11.2019 09:00:00 15,8 11,0 0 0 N 1014,4 20 60
20.11.2019 08:00:00 12,8 9,4 4 2 SO 1014,4 20 36
20.11.2019 07:00:00 11,0 9,2 2 1 O 1013,7 20 0
20.11.2019 06:00:00 11,2 10,4 2 1 SSO 1013,4 20 -
20.11.2019 05:00:00 11,2 9,6 4 2 NNO 1013,4 16 -
20.11.2019 04:00:00 11,2 9,0 5 3 ONO 1013,4 16 -
20.11.2019 03:00:00 11,2 9,0 5 3 O 1013,4 16 6
20.11.2019 02:00:00 11,4 9,3 4 2 O 1013,4 16 -
20.11.2019 01:00:00 11,2 8,8 5 3 OSO 1013,3 16 -
20.11.2019 00:00:00 11,2 10,0 2 1 OSO 1013,2 16 -
19.11.2019 23:00:00 11,8 10,2 4 2 O 1013,1 16 -
19.11.2019 22:00:00 12,2 11,6 4 2 O 1013,4 16 -
19.11.2019 21:00:00 12,8 12,2 2 1 ONO 1013,5 12 -
19.11.2019 20:00:00 13,0 13,0 4 2 NO 1013,8 10 -
19.11.2019 19:00:00 13,2 13,2 0 0 N 1014,5 4,0 -
19.11.2019 18:00:00 13,8 13,8 4 2 SO 1014,6 6 -
19.11.2019 17:00:00 13,8 13,8 4 2 SSO 1014,6 6 0
19.11.2019 16:00:00 13,8 13,8 8 4 OSO 1014,4 7 0
19.11.2019 15:00:00 15,2 14,1 16 9 SO 1013,7 8 0
19.11.2019 14:00:00 18,0 9,9 9 5 SSO 1013,7 25 0
19.11.2019 13:00:00 18,0 9,4 11 6 SSO 1014,4 25 0
19.11.2019 12:00:00 18,0 8,9 15 8 SO 1014,9 25 0
19.11.2019 11:00:00 17,4 9,8 13 7 S 1015,5 25 0
19.11.2019 10:00:00 17,4 9,6 8 4 E 1016,3 25 0
19.11.2019 09:00:00 17,0 9,4 5 3 E 1016,5 25 0
19.11.2019 08:00:00 17,0 10,1 9 5 SSO 1016,5 16 0
19.11.2019 07:00:00 16,4 10,3 9 5 S 1016,5 10 0
19.11.2019 06:00:00 16,2 11,4 8 4 SSO 1016,5 14 -
19.11.2019 05:00:00 16,2 12,7 8 4 S 1016,7 12 -
19.11.2019 04:00:00 16,4 13,0 5 3 SO 1017,0 14 -
19.11.2019 03:00:00 16,2 12,2 8 4 SO 1017,2 14 -
19.11.2019 02:00:00 16,2 12,7 11 6 SO 1017,3 12 -
19.11.2019 01:00:00 16,4 12,8 9 5 SSO 1017,5 12 -
19.11.2019 00:00:00 16,4 11,4 11 6 S 1017,5 12 -
18.11.2019 23:00:00 16,4 9,1 9 5 S 1017,6 16 -
18.11.2019 22:00:00 16,4 7,9 9 5 S 1017,4 20 -
18.11.2019 21:00:00 15,6 10,4 4 2 SO 1017,3 20 -
18.11.2019 20:00:00 15,0 10,6 8 4 OSO 1017,4 20 -
18.11.2019 19:00:00 15,4 11,6 5 3 OSO 1017,2 20 -
18.11.2019 18:00:00 15,2 10,4 5 3 OSO 1016,7 20 -
18.11.2019 17:00:00 16,0 10,5 9 5 SSO 1016,6 20 6
18.11.2019 16:00:00 17,4 8,0 11 6 SSO 1016,4 20 60
18.11.2019 15:00:00 18,0 5,9 4 2 SSO 1016,4 20 60
18.11.2019 14:00:00 18,6 6,8 11 6 SSO 1016,4 20 60
18.11.2019 13:00:00 18,6 6,8 13 7 SSO 1016,5 20 60
18.11.2019 12:00:00 18,8 6,0 5 3 S 1017,3 20 60
18.11.2019 11:00:00 18,8 6,3 4 2 S 1017,6 20 60
18.11.2019 10:00:00 17,8 8,1 2 1 S 1018,2 20 60
18.11.2019 09:00:00 16,6 7,8 2 1 ESE 1017,5 20 60
18.11.2019 08:00:00 13,6 7,2 2 1 OSO 1017,4 20 42
18.11.2019 07:00:00 13,0 7,2 4 2 O 1016,5 20 0
18.11.2019 06:00:00 13,0 6,6 4 2 N 1016,3 15 -
18.11.2019 05:00:00 12,8 7,5 4 2 NO 1015,4 12 -
18.11.2019 04:00:00 13,6 8,7 2 1 NO 1015,3 10 -
18.11.2019 03:00:00 13,4 6,3 4 2 ONO 1015,1 12 -
18.11.2019 02:00:00 14,0 7,1 2 1 NO 1014,7 12 -
18.11.2019 01:00:00 14,0 7,5 2 1 O 1014,5 12 -
18.11.2019 00:00:00 13,6 10,0 4 2 NNO 1014,5 12 -
17.11.2019 23:00:00 13,8 9,5 4 2 NO 1014,1 12 -
17.11.2019 22:00:00 13,8 9,0 8 4 NO 1014,1 12 -
17.11.2019 21:00:00 13,8 9,7 5 3 NNO 1013,4 12 -
17.11.2019 20:00:00 14,6 6,9 13 7 ONO 1011,7 12 -
17.11.2019 19:00:00 15,2 7,5 4 2 NO 1010,4 14 -
17.11.2019 18:00:00 16,4 5,1 8 4 NO 1009,7 16 -
17.11.2019 17:00:00 17,4 5,0 9 5 SSO 1009,4 18 0
17.11.2019 16:00:00 17,4 11,9 8 4 ONO 1008,5 16 0
17.11.2019 15:00:00 18,0 14,1 9 5 NE 1008,3 10 0
17.11.2019 14:00:00 18,4 13,7 5 3 NE 1008,3 10 6
17.11.2019 13:00:00 18,0 13,3 8 4 NO 1007,7 10 0
17.11.2019 12:00:00 18,4 15,7 13 7 SO 1007,2 6 0
17.11.2019 11:00:00 21,0 15,1 16 9 SSO 1007,4 10 60
17.11.2019 10:00:00 20,0 14,6 18 10 SSO 1007,6 10 24
17.11.2019 09:00:00 19,6 14,4 16 9 SSO 1007,7 10 0
17.11.2019 08:00:00 19,4 14,4 13 7 SSO 1007,9 10 0
17.11.2019 07:00:00 19,4 13,1 13 7 SO 1008,3 10 0
17.11.2019 06:00:00 19,0 13,4 16 9 SSO 1008,3 9 -
17.11.2019 05:00:00 18,2 13,3 16 9 SSO 1008,9 9 -
17.11.2019 04:00:00 19,0 13,0 16 9 SSO 1009,2 9 -
17.11.2019 03:00:00 19,4 12,7 16 9 SSO 1009,2 12 -
17.11.2019 02:00:00 19,4 13,4 13 7 SSO 1009,9 12 -
17.11.2019 01:00:00 19,2 13,4 18 10 SSO 1009,9 12 -
17.11.2019 00:00:00 19,4 12,9 18 10 SSO 1010,1 12 -
16.11.2019 23:00:00 19,4 13,8 21 11 SSO 1010,2 12 -
16.11.2019 22:00:00 19,0 14,9 11 6 SSO 1010,2 12 -
16.11.2019 21:00:00 19,2 15,3 11 6 S 1010,1 12 -
16.11.2019 20:00:00 19,0 15,5 11 6 S 1010,0 12 -
16.11.2019 19:00:00 18,8 16,2 22 12 S 1009,8 12 -
16.11.2019 18:00:00 19,8 15,2 15 8 S 1009,4 12 -
16.11.2019 17:00:00 19,8 15,7 18 10 S 1009,9 13 -
16.11.2019 16:00:00 20,4 14,5 16 9 S 1010,3 16 24
16.11.2019 15:00:00 20,6 14,5 16 9 S 1010,4 14 0
16.11.2019 14:00:00 20,6 15,0 18 10 S 1010,7 12 0
16.11.2019 13:00:00 20,6 15,2 16 9 S 1011,4 12 24
16.11.2019 12:00:00 20,8 14,5 21 11 S 1012,2 12 18
16.11.2019 11:00:00 20,0 14,8 16 9 S 1012,6 15 0
16.11.2019 10:00:00 19,8 13,5 16 9 S 1013,5 10 0
16.11.2019 09:00:00 19,8 13,5 15 8 S 1013,5 20 0
16.11.2019 08:00:00 19,4 12,2 13 7 S 1013,6 12 0

tt = Temperatura
td = dewpoint
ff = velocità del vento
dd = direzione del vento
ppp = reduced air pressure
vv = visibility
sd = ore di luce

Stazioni seguenti

WeatherPro
AMSI
MeteoEarth